Regional Weather Roundup
Issued by NWS

Home | Current Version | Previous Version | Text Only | Print | Product List | Glossary Off
Versions: 1 2 3 4 5 6 7 8 9 10 11 12 13 14 15 16 17 18 19 20 21 22 23 24 25 26 27 28 29 30 31 32 33 34 35 36 37 38 39 40 41 42 43 44 45 46 47 48 49 50

000
ASUS43 KDTX 042010
RWRMI
MICHIGAN HOURLY REGIONAL WEATHER ROUNDUP
NATIONAL WEATHER SERVICE DETROIT/PONTIAC MI
300 PM EST WED MAR 04 2015

NOTE: "FAIR" INDICATES FEW OR NO CLOUDS BELOW 12,000 FEET WITH NO
SIGNIFICANT WEATHER AND/OR OBSTRUCTION TO VISIBILITY.

MIZ047>049-052>055-059>063-066>070-074>076-081>083-042100-
SOUTHEAST LOWER MICHIGAN

CITY           SKY/WX    TMP DP  RH WIND       PRES   REMARKS
ADRIAN         CLOUDY    30  15  53 W16       30.00R
ALMA           SUNNY     24   8  50 W16G22    29.98F
ANN ARBOR      CLOUDY    31  15  52 W15       29.96R
BAD AXE        MOSUNNY   27  16  63 NW16G24   29.93R
DETROIT CITY   CLOUDY    36  15  42 NW10      29.94R
DETROIT        CLOUDY    34  18  52 SW16      29.96R
FLINT          MOSUNNY   29  13  51 W20       29.96R
GROSSE ILE     CLOUDY    36  16  44 W14       29.94R
HILLSDALE      CLOUDY    28  15  58 W17G24    29.98R
HOWELL         PTSUNNY   29  13  51 W13G21    29.95S

CITY           SKY/WX    TMP DP  RH WIND       PRES   REMARKS
JACKSON        CLOUDY    28  14  55 W16G23    29.98
LAMBERTVILLE   CLOUDY    34  21  60 W14G22    29.99R
LANSING        PTSUNNY   26  12  55 W23       29.99R
LAPEER         NOT AVBL
MASON          MOSUNNY   26  13  57 W20       29.98R
MONROE         CLOUDY    34  21  60 W15G21    29.95S
MT. CLEMENS    PTSUNNY   33  15  46 W16       29.90
PONTIAC        CLOUDY    29   9  43 W20       29.93R
PORT HOPE        N/A     27  11  51 W9G22     29.92R
PORT HURON     CLOUDY    32  10  40 W9G18     29.92R
TRI CITIES     MOSUNNY   28  10  46 W18       29.96R
YPSILANTI      CLOUDY    35  18  49 W18       29.95S
$$
MIZ043>046-050>051-056>058-064>065-071>073-077>080-042100-
SOUTHWEST LOWER MICHIGAN

CITY           SKY/WX    TMP DP  RH WIND       PRES   REMARKS
BATTLE CREEK   PTSUNNY   25   9  50 W20       30.02
BENTON HARBOR  PTSUNNY   20  11  68 NW12G23   30.12
BIG RAPIDS     CLOUDY    21   8  57 W8G22     29.99R
COLDWATER      CLOUDY    26  12  56 W20       30.02R
HOLLAND        PTSUNNY   19   7  59 NW13G25   30.10
GRAND RAPIDS   PTSUNNY   21   7  54 W17G28    30.05
KALAMAZOO      MOSUNNY   23   9  55 NW20      30.05
MARSHALL       PTSUNNY   27  12  54 W20       30.00R
MUSKEGON       PTSUNNY   20   7  57 W18G29    30.09R
$$
MIZ016>042-042100-
NORTHERN LOWER MICHIGAN

CITY           SKY/WX    TMP DP  RH WIND       PRES   REMARKS
ALPENA         PTSUNNY   20   2  45 NW14G20   29.92S
BEAVER ISLAND  LGT SNOW  12   5  73 W9        29.99R
BELLAIRE       LGT SNOW  14   7  73 NW10      30.02R
CADILLAC       PTSUNNY   17   3  56 W18G25    29.95R
CHARLEVOIX     CLOUDY    12   3  66 W20G25    30.02S WCI  -6
FRANKFORT      MOCLDY    15   4  63 NW14G22   30.05S WCI   0
GAYLORD        LGT SNOW  11   2  67 W18G29    29.91R WCI  -7
GRAYLING       CLOUDY    16   5  63 W14G20    29.94R HAZE
HARBOR SPRINGS MOSUNNY   14   5  68 W10       29.97S
HOUGHTON LAKE  SUNNY     19   2  47 W17G24    29.93
MANISTEE       CLOUDY    16   0  48 NW18G25   30.07R WCI  -1
OSCODA         MOSUNNY   25   7  47 W16       29.91R
PELLSTON       CLOUDY    12   2  64 W17       29.97  WCI  -5
TRAVERSE CITY  CLOUDY    16   4  59 W16       30.00
$$
MIZ007>008-015-042100-
EASTERN UPPER MICHIGAN

CITY           SKY/WX    TMP DP  RH WIND       PRES   REMARKS
KINROSS        CLOUDY    10   1  67 NW20G26   29.94S WCI  -8
MACKINAC ISLAN CLOUDY    15  -1  48 W14G23    29.95S
NEWBERRY       CLOUDY     8  -2  64 W15G23    29.96S WCI -10
S. S. MARIE    LGT SNOW   7  -2  66 NW18G26   29.96  WCI -12
$$
MIZ004>006-011>014-085-042100-
CENTRAL UPPER MICHIGAN

CITY           SKY/WX    TMP DP  RH WIND       PRES   REMARKS
MANISTIQUE     CLOUDY    13   4  66 W13       29.98S WCI  -2
ESCANABA       PTSUNNY   12  -8  40 NW15G24   30.02R WCI  -4
MENOMINEE      SUNNY     16  -9  32 W12G25    30.02F
SAWYER-GWINN   CLOUDY     7  -8  51 NW16G22   29.97R WCI -11
$$
MIZ001>003-009>011-084-042100-
WESTERN UPPER MICHIGAN

CITY           SKY/WX    TMP DP  RH WIND       PRES   REMARKS
IRON MOUNTAIN  CLOUDY    10  -9  42 W20G25    29.99  WCI  -9
HOUGHTON       BLWGSNOW   2  -7  66 W26G37    30.00R VSB 3/4 WCI -22
COPPER HARBOR    N/A      4  -8  57 N22G32    30.03R WCI -18
IRONWOOD       PTSUNNY    3  -8  60 W17       30.05R WCI -17
$$

ABBREVIATIONS USED IN REMARKS
   TC - TEMPERATURE IN CELSIUS
  WCI - WIND CHILL INDEX
   HX - HEAT INDEX
  VSB - VISIBILITY




USA.gov is the U.S. government's official web portal to all federal, state and local government web resources and services.